Terminal Aerodrome Forecast
Issued by NWS Milwaukee/Sullivan, WI

Home | Current Version | Previous Version | Text Only | Print | Product List | Glossary On
Versions: 1 2 3 4 5 6 7 8 9 10 11 12 13 14 15 16 17 18 19 20 21 22 23 24 25 26 27 28 29
000
FTUS43 KMKX 302333
TAFMSN
TAF
KMSN 302333Z 3100/3124 VRB03KT P6SM SKC
     FM310800 14004KT P6SM VCTS SCT040CB BKN200
     FM311500 15008KT P6SM SCT080
     FM312100 17011KT P6SM SHRA VCTS BKN090CB=

USA.gov is the U.S. government's official web portal to all federal, state and local government web resources and services.